Time,TemperatureF,DewpointF,PressureIn,WindDirection,WindDirectionDegrees,WindSpeedMPH,WindSpeedGustMPH,Humidity,HourlyPrecipIn,Conditions,Clouds,dailyrainin,SoftwareType,DateUTC
2013-02-27 00:00:00,37.9,34.0,29.65,WNW,288,4.0,17.0,85,0.00,,,0.61,weatherlink.com 1.10,2013-02-27 06:00:00,
2013-02-27 00:15:00,37.8,34.0,29.65,WSW,250,4.0,14.0,86,0.00,,,0.00,weatherlink.com 1.10,2013-02-27 06:15:00,
2013-02-27 00:30:00,37.8,34.0,29.65,NW,317,8.0,16.0,86,0.00,,,0.00,weatherlink.com 1.10,2013-02-27 06:30:00,
2013-02-27 00:45:00,37.8,34.0,29.66,West,280,7.0,14.0,87,0.00,,,0.00,weatherlink.com 1.10,2013-02-27 06:45:00,
2013-02-27 01:01:00,37.7,34.0,29.67,NW,307,4.0,14.0,87,0.00,,,0.00,weatherlink.com 1.10,2013-02-27 07:01:00,
2013-02-27 01:16:00,37.4,34.0,29.67,West,275,8.0,14.0,87,0.00,,,0.00,weatherlink.com 1.10,2013-02-27 07:16:00,
2013-02-27 01:31:00,37.4,34.0,29.67,West,271,7.0,13.0,87,0.00,,,0.00,weatherlink.com 1.10,2013-02-27 07:31:00,
2013-02-27 01:46:00,37.3,34.0,29.68,West,279,6.0,14.0,87,0.00,,,0.00,weatherlink.com 1.10,2013-02-27 07:46:00,
2013-02-27 02:01:00,37.2,33.0,29.68,WNW,293,3.0,15.0,86,0.00,,,0.00,weatherlink.com 1.10,2013-02-27 08:01:00,
2013-02-27 02:16:00,37.1,33.0,29.68,West,260,6.0,12.0,85,0.00,,,0.00,weatherlink.com 1.10,2013-02-27 08:16:00,
2013-02-27 02:31:00,37.0,33.0,29.68,WNW,298,11.0,13.0,85,0.00,,,0.00,weatherlink.com 1.10,2013-02-27 08:31:00,
2013-02-27 02:46:00,36.7,32.0,29.68,West,268,6.0,18.0,84,0.00,,,0.00,weatherlink.com 1.10,2013-02-27 08:46:00,
2013-02-27 03:01:00,36.7,33.0,29.68,WNW,290,6.0,9.0,85,0.00,,,0.00,weatherlink.com 1.10,2013-02-27 09:01:00,
2013-02-27 03:16:00,36.7,32.0,29.69,West,271,8.0,14.0,84,0.00,,,0.00,weatherlink.com 1.10,2013-02-27 09:16:00,
2013-02-27 03:31:00,36.6,33.0,29.69,West,279,6.0,11.0,85,0.00,,,0.00,weatherlink.com 1.10,2013-02-27 09:31:00,
2013-02-27 03:46:00,36.6,33.0,29.70,West,268,8.0,14.0,85,0.00,,,0.00,weatherlink.com 1.10,2013-02-27 09:46:00,
2013-02-27 04:01:00,36.5,32.0,29.70,WNW,298,5.0,13.0,85,0.00,,,0.00,weatherlink.com 1.10,2013-02-27 10:01:00,
2013-02-27 04:16:00,36.4,32.0,29.70,West,265,7.0,17.0,85,0.00,,,0.00,weatherlink.com 1.10,2013-02-27 10:16:00,
2013-02-27 04:31:00,-999.0,-99.9,29.71,North,-999,-999.0,-999.0,-999,0.00,,,0.00,weatherlink.com 1.10,2013-02-27 10:31:00,
2013-02-27 04:46:00,-999.0,-99.9,29.72,North,-999,-999.0,-999.0,-999,0.00,,,0.00,weatherlink.com 1.10,2013-02-27 10:46:00,
2013-02-27 05:01:00,-999.0,-99.9,29.73,North,-999,-999.0,-999.0,-999,0.00,,,0.00,weatherlink.com 1.10,2013-02-27 11:01:00,
2013-02-27 05:16:00,-999.0,-99.9,29.73,North,-999,-999.0,-999.0,-999,0.00,,,0.00,weatherlink.com 1.10,2013-02-27 11:16:00,
2013-02-27 05:31:00,-999.0,-99.9,29.73,North,-999,-999.0,-999.0,-999,0.00,,,0.00,weatherlink.com 1.10,2013-02-27 11:31:00,
2013-02-27 05:46:00,-999.0,-99.9,29.73,North,-999,-999.0,-999.0,-999,0.00,,,0.00,weatherlink.com 1.10,2013-02-27 11:46:00,
2013-02-27 06:01:00,-999.0,-99.9,29.73,North,-999,-999.0,-999.0,-999,0.00,,,0.00,weatherlink.com 1.10,2013-02-27 12:01:00,
2013-02-27 06:16:00,-999.0,-99.9,29.74,North,-999,-999.0,-999.0,-999,0.00,,,0.00,weatherlink.com 1.10,2013-02-27 12:16:00,
2013-02-27 06:32:00,-999.0,-99.9,29.74,North,-999,-999.0,-999.0,-999,0.00,,,0.00,weatherlink.com 1.10,2013-02-27 12:32:00,
2013-02-27 06:47:00,-999.0,-99.9,29.75,North,-999,-999.0,-999.0,-999,0.00,,,0.00,weatherlink.com 1.10,2013-02-27 12:47:00,
2013-02-27 07:02:00,-999.0,-99.9,29.75,North,-999,-999.0,-999.0,-999,0.00,,,0.00,weatherlink.com 1.10,2013-02-27 13:02:00,
2013-02-27 07:17:00,-999.0,-99.9,29.75,North,-999,-999.0,-999.0,-999,0.00,,,0.00,weatherlink.com 1.10,2013-02-27 13:17:00,
2013-02-27 07:32:00,36.7,32.0,29.76,West,261,5.0,15.0,82,0.00,,,0.00,weatherlink.com 1.10,2013-02-27 13:32:00,
2013-02-27 07:47:00,36.8,32.0,29.76,WNW,294,8.0,12.0,81,0.00,,,0.00,weatherlink.com 1.10,2013-02-27 13:47:00,
2013-02-27 08:02:00,36.8,32.0,29.76,West,273,10.0,14.0,82,0.00,,,0.00,weatherlink.com 1.10,2013-02-27 14:02:00,
2013-02-27 08:17:00,37.0,32.0,29.76,West,267,3.0,10.0,82,0.00,,,0.00,weatherlink.com 1.10,2013-02-27 14:17:00,
2013-02-27 08:32:00,37.2,32.0,29.77,WSW,257,3.0,15.0,81,0.00,,,0.00,weatherlink.com 1.10,2013-02-27 14:32:00,
2013-02-27 08:47:00,37.2,32.0,29.77,WSW,256,3.0,12.0,80,0.00,,,0.00,weatherlink.com 1.10,2013-02-27 14:47:00,
2013-02-27 09:02:00,37.4,32.0,29.77,West,265,4.0,16.0,80,0.00,,,0.00,weatherlink.com 1.10,2013-02-27 15:02:00,
2013-02-27 09:17:00,37.8,32.0,29.77,SW,234,3.0,11.0,80,0.00,,,0.00,weatherlink.com 1.10,2013-02-27 15:17:00,
2013-02-27 09:32:00,37.8,32.0,29.78,WSW,250,3.0,11.0,79,0.00,,,0.00,weatherlink.com 1.10,2013-02-27 15:32:00,
2013-02-27 09:47:00,37.9,32.0,29.77,West,279,7.0,16.0,80,0.00,,,0.00,weatherlink.com 1.10,2013-02-27 15:47:00,
2013-02-27 10:02:00,38.1,32.0,29.78,WSW,254,7.0,16.0,79,0.00,,,0.00,weatherlink.com 1.10,2013-02-27 16:02:00,
2013-02-27 10:17:00,38.4,32.0,29.77,WNW,288,6.0,16.0,79,0.00,,,0.00,weatherlink.com 1.10,2013-02-27 16:17:00,
2013-02-27 10:32:00,39.1,33.0,29.77,SW,222,8.0,14.0,78,0.00,,,0.00,weatherlink.com 1.10,2013-02-27 16:32:00,
2013-02-27 10:47:00,39.3,33.0,29.78,WSW,254,3.0,15.0,77,0.00,,,0.00,weatherlink.com 1.10,2013-02-27 16:47:00,
2013-02-27 11:02:00,39.0,33.0,29.78,WNW,288,2.0,13.0,78,0.00,,,0.00,weatherlink.com 1.10,2013-02-27 17:02:00,
2013-02-27 11:17:00,39.3,32.0,29.78,West,271,9.0,16.0,75,0.00,,,0.00,weatherlink.com 1.10,2013-02-27 17:17:00,
2013-02-27 11:32:00,39.4,32.0,29.78,West,267,7.0,19.0,76,0.00,,,0.00,weatherlink.com 1.10,2013-02-27 17:32:00,
2013-02-27 11:47:00,39.2,32.0,29.78,NNW,347,7.0,15.0,74,0.00,,,0.00,weatherlink.com 1.10,2013-02-27 17:47:00,
2013-02-27 12:02:00,39.5,32.0,29.78,West,281,3.0,16.0,74,0.00,,,0.00,weatherlink.com 1.10,2013-02-27 18:02:00,
2013-02-27 12:17:00,39.5,33.0,29.78,WSW,245,8.0,16.0,76,0.00,,,0.00,weatherlink.com 1.10,2013-02-27 18:17:00,
2013-02-27 12:32:00,37.5,33.0,29.78,West,281,7.0,16.0,85,0.00,,,0.00,weatherlink.com 1.10,2013-02-27 18:32:00,
2013-02-27 12:47:00,38.0,35.0,29.78,WSW,240,7.0,12.0,88,0.00,,,0.00,weatherlink.com 1.10,2013-02-27 18:47:00,
2013-02-27 13:02:00,38.6,35.0,29.78,WNW,296,4.0,13.0,85,0.00,,,0.00,weatherlink.com 1.10,2013-02-27 19:02:00,
2013-02-27 13:17:00,37.6,35.0,29.78,SSW,196,5.0,13.0,89,0.00,,,0.00,weatherlink.com 1.10,2013-02-27 19:17:00,
2013-02-27 13:32:00,37.8,35.0,29.78,WNW,291,5.0,14.0,89,0.00,,,0.00,weatherlink.com 1.10,2013-02-27 19:32:00,
2013-02-27 13:47:00,37.3,35.0,29.78,WSW,240,4.0,12.0,90,0.00,,,0.00,weatherlink.com 1.10,2013-02-27 19:47:00,
2013-02-27 14:02:00,37.1,35.0,29.79,SW,235,6.0,12.0,90,0.01,,,0.01,weatherlink.com 1.10,2013-02-27 20:02:00,
2013-02-27 14:17:00,36.4,34.0,29.79,WNW,290,6.0,12.0,92,0.02,,,0.02,weatherlink.com 1.10,2013-02-27 20:17:00,
2013-02-27 14:32:00,37.2,35.0,29.79,West,281,9.0,17.0,91,0.02,,,0.02,weatherlink.com 1.10,2013-02-27 20:32:00,
2013-02-27 14:47:00,37.2,35.0,29.79,West,270,6.0,12.0,90,0.02,,,0.02,weatherlink.com 1.10,2013-02-27 20:47:00,
2013-02-27 15:02:00,36.4,34.0,29.80,West,271,6.0,15.0,90,0.01,,,0.02,weatherlink.com 1.10,2013-02-27 21:02:00,
2013-02-27 15:17:00,36.5,34.0,29.80,West,281,8.0,15.0,90,0.01,,,0.03,weatherlink.com 1.10,2013-02-27 21:17:00,
2013-02-27 15:32:00,36.8,34.0,29.81,WSW,254,8.0,17.0,89,0.01,,,0.03,weatherlink.com 1.10,2013-02-27 21:32:00,
2013-02-27 15:47:00,36.8,34.0,29.81,WNW,287,8.0,17.0,88,0.01,,,0.03,weatherlink.com 1.10,2013-02-27 21:47:00,
2013-02-27 16:02:00,36.6,34.0,29.81,WNW,286,8.0,15.0,89,0.01,,,0.03,weatherlink.com 1.10,2013-02-27 22:02:00,
2013-02-27 16:17:00,36.0,34.0,29.82,West,272,6.0,13.0,91,0.00,,,0.03,weatherlink.com 1.10,2013-02-27 22:17:00,
2013-02-27 16:33:00,36.1,34.0,29.82,West,277,9.0,15.0,90,0.00,,,0.03,weatherlink.com 1.10,2013-02-27 22:33:00,
2013-02-27 16:48:00,35.7,33.0,29.83,West,265,7.0,12.0,91,0.00,,,0.03,weatherlink.com 1.10,2013-02-27 22:48:00,
2013-02-27 17:03:00,35.8,33.0,29.83,West,277,4.0,11.0,90,0.00,,,0.03,weatherlink.com 1.10,2013-02-27 23:03:00,
2013-02-27 17:18:00,35.7,33.0,29.83,West,277,5.0,9.0,91,0.00,,,0.03,weatherlink.com 1.10,2013-02-27 23:18:00,
2013-02-27 17:33:00,35.9,33.0,29.84,NW,311,6.0,11.0,89,0.00,,,0.03,weatherlink.com 1.10,2013-02-27 23:33:00,
2013-02-27 17:48:00,35.8,33.0,29.84,West,275,7.0,13.0,89,0.00,,,0.03,weatherlink.com 1.10,2013-02-27 23:48:00,
2013-02-27 18:03:00,35.5,33.0,29.85,WNW,292,5.0,10.0,90,0.00,,,0.03,weatherlink.com 1.10,2013-02-28 00:03:00,
2013-02-27 18:18:00,35.5,33.0,29.85,WNW,300,6.0,12.0,89,0.00,,,0.03,weatherlink.com 1.10,2013-02-28 00:18:00,
2013-02-27 18:33:00,35.5,33.0,29.86,WNW,283,7.0,11.0,89,0.00,,,0.03,weatherlink.com 1.10,2013-02-28 00:33:00,
2013-02-27 18:48:00,35.5,32.0,29.86,West,273,6.0,13.0,88,0.00,,,0.03,weatherlink.com 1.10,2013-02-28 00:48:00,
2013-02-27 19:03:00,35.3,32.0,29.87,West,277,7.0,13.0,89,0.00,,,0.03,weatherlink.com 1.10,2013-02-28 01:03:00,
2013-02-27 19:18:00,35.3,32.0,29.87,WNW,288,8.0,14.0,87,0.00,,,0.03,weatherlink.com 1.10,2013-02-28 01:18:00,
2013-02-27 19:33:00,35.3,32.0,29.87,WNW,285,6.0,14.0,86,0.00,,,0.03,weatherlink.com 1.10,2013-02-28 01:33:00,
2013-02-27 19:48:00,-999.0,-99.9,29.87,North,-999,-999.0,-999.0,-999,0.00,,,0.03,weatherlink.com 1.10,2013-02-28 01:48:00,
2013-02-27 20:03:00,-999.0,-99.9,29.87,North,-999,-999.0,-999.0,-999,0.00,,,0.03,weatherlink.com 1.10,2013-02-28 02:03:00,
2013-02-27 20:18:00,-999.0,-99.9,29.87,North,-999,-999.0,-999.0,-999,0.00,,,0.03,weatherlink.com 1.10,2013-02-28 02:18:00,
2013-02-27 20:33:00,-999.0,-99.9,29.87,North,-999,-999.0,-999.0,-999,0.00,,,0.03,weatherlink.com 1.10,2013-02-28 02:33:00,
2013-02-27 20:48:00,-999.0,-99.9,29.87,North,-999,-999.0,-999.0,-999,0.00,,,0.03,weatherlink.com 1.10,2013-02-28 02:48:00,
2013-02-27 21:03:00,-999.0,-99.9,29.87,North,-999,-999.0,-999.0,-999,0.00,,,0.03,weatherlink.com 1.10,2013-02-28 03:03:00,
2013-02-27 21:18:00,-999.0,-99.9,29.88,North,-999,-999.0,-999.0,-999,0.00,,,0.03,weatherlink.com 1.10,2013-02-28 03:18:00,
2013-02-27 21:33:00,-999.0,-99.9,29.88,North,-999,-999.0,-999.0,-999,0.00,,,0.03,weatherlink.com 1.10,2013-02-28 03:33:00,
2013-02-27 21:48:00,-999.0,-99.9,29.88,North,-999,-999.0,-999.0,-999,0.00,,,0.03,weatherlink.com 1.10,2013-02-28 03:48:00,
2013-02-27 22:04:00,-999.0,-99.9,29.88,North,-999,-999.0,-999.0,-999,0.00,,,0.03,weatherlink.com 1.10,2013-02-28 04:04:00,
2013-02-27 22:34:00,-999.0,-99.9,29.88,North,-999,-999.0,-999.0,-999,0.00,,,0.03,weatherlink.com 1.10,2013-02-28 04:34:00,
2013-02-27 22:49:00,-999.0,-99.9,29.88,North,-999,-999.0,-999.0,-999,0.00,,,0.03,weatherlink.com 1.10,2013-02-28 04:49:00,
2013-02-27 23:04:00,-999.0,-99.9,29.88,North,-999,-999.0,-999.0,-999,0.00,,,0.03,weatherlink.com 1.10,2013-02-28 05:04:00,
2013-02-27 23:19:00,-999.0,-99.9,29.88,North,-999,-999.0,-999.0,-999,0.00,,,0.03,weatherlink.com 1.10,2013-02-28 05:19:00,
2013-02-27 23:34:00,-999.0,-99.9,29.88,North,-999,-999.0,-999.0,-999,0.00,,,0.03,weatherlink.com 1.10,2013-02-28 05:34:00,
2013-02-27 23:49:00,-999.0,-99.9,29.88,North,-999,-999.0,-999.0,-999,0.00,,,0.03,weatherlink.com 1.10,2013-02-28 05:49:00,